Dr. Bill's Marine Weather

Coastal Marine Forecast

       Alabama   Florida   Louisiana   Mississippi

Printer Friendly AL  FL  LA  MS

Data Buoys:   Western Gulf of Mexico    Eastern Gulf of Mexico
**********************************************************************
  Alabama
1100 AM CST WED FEB 10 2016

ALZ051>064-101800-
SOUTHWEST ALABAMA
  
CITY           SKY/WX    TMP DP  RH WIND       PRES   REMARKS
MOBILE         SUNNY     46  14  27 N13       30.34S                  
BROOKLEY FIELD SUNNY     46  15  28 NW10      30.35F                  
EVERGREEN      SUNNY     42  12  29 W8G17     30.30F                  
**********************************************************************
  Florida
1200 PM EST WED FEB 10 2016

FLZ001>010-012>015-112-114-115-101800-
PANHANDLE FLORIDA
  
CITY           SKY/WX    TMP DP  RH WIND       PRES   REMARKS
PENSACOLA      SUNNY     46  13  26 NW13G23   30.32F WCI  40          
PENSACOLA NAS  SUNNY     46  13  26 NW10G17   30.32F WCI  41          
MILTON NAS     SUNNY     44  14  29 NW14G20   30.32  WCI  37          
CRESTVIEW      SUNNY     44  11  26 NW15      30.32F WCI  37          
VALPARAISO     MOSUNNY   45  11  25 NW14      30.29F WCI  38          
MARY ESTHER    SUNNY     45  11  24 NW8G18    30.30F WCI  41          
TRI COUNTY     FAIR      42  14  32 VRB6      30.30F WCI  38          
PANAMA CITY    FAIR      44  16  32 NW13      30.28F WCI  38          
TYNDALL AFB    SUNNY     45  17  33 NW16      30.29F WCI  38          
APALACHICOLA   SUNNY     47  16  29 W15G22    30.28F WCI  41          

STATION/POSITION SKY/WX   TEMP    WIND        PRES    WAVE   SWELL
                          AIR SEA DIR/SP/G            HT/PER HT/PER
                          (F)     (DEG/KT/KT) (MB)    (FT/S) (FT/S)
30.1N   87.6W              43 65  310/ 10/ 14 1027.0F   2/ 3   2/ 8
28.8N   86.0W              51 69  340/ 17/ 21 1026.7S   7/ 8   3/ 8
PANAMA CITY BEAC           39 56  300/ 12/ 14 1026.5F
CAPE SAN BLAS    NOT AVBL
TOWER C          NOT AVBL
28.5N   84.5W              52 67  320/ 17/ 23 1025.5F   8/ 9   3/ 9

**********************************************************************
  Louisiana
1100 AM CST WED FEB 10 2016

LAZ040-048-061>063-065-066-069-101800-
SOUTHEAST LOUISIANA
  
CITY           SKY/WX    TMP DP  RH WIND       PRES   REMARKS
N.O. AUDUBON     N/A     55  28  34 MISG        N/A                   
N.O. INTL ARPT SUNNY     51  17  26 NW8       30.38F                  
N.O. LAKEFRONT SUNNY     45  25  45 W7        30.39F                  
N.O. DOWNTOWN* FAIR      50  18  27 MISG      30.39S                  
RESERVE*       FAIR      53  16  23 NW7       30.38F                  
SLIDELL        SUNNY     50  18  28 NW6       30.36F                  
BATON ROUGE    SUNNY     50  19  29 W5        30.38S                  
BOOTHVILLE     SUNNY     49  23  36 VRB7      30.39S                  
BELLE CHASSE   SUNNY     51  17  26 NW7       30.38F                  
BOGALUSA*        N/A     50  14  23 N6        30.37S                  
GALLIANO*      SUNNY     53  23  30 NW7       30.38F                  
NEW ROADS*     FAIR      47  21  35 NW3       30.39F                  
GONZALES*      FAIR      50  20  30 N7        30.38S                  
HAMMOND*       SUNNY     52  16  24 NW7       30.37S                  
HOUMA*         SUNNY     52  19  28 N6        30.38F                  
PORT FOURCHON* SUNNY     50  21  32 NW9       30.39F                  

**********************************************************************
  Mississippi
1100 AM CST WED FEB 10 2016

MSZ080>082-101800-
COASTAL MISSISSIPPI
  
CITY           SKY/WX    TMP DP  RH WIND       PRES   REMARKS
BAY ST LOUIS   SUNNY     48   7  18 NW7       30.36F                  
BILOXI         SUNNY     49  17  27 NW8       30.33F                  
PASCAGOULA     SUNNY     49  16  26 NW8       30.34F                  
GULFPORT       SUNNY     49  15  25 W8        30.34F                  
About Us | Coastal Marine Forecast | Offshore Marine Forecast
Gulf Coast Tides | Hourly Weather Observations | Weather Radar
Sea Surface Temperatures | Solar/Lunar Data | Hurricane Advisories | Home
     
USA Logo Dr. Bill's Marine Weather
Last date changed: December 9, 2014 4:08 PM
www.gulfmarineweather.com/hourlyweatherobservations.shtml
Contact Us